Location: Allen Lane School
(37.8198°N, 89.7382°W)
Time: 22:30:12
(UTC+00:00)

N. Korean satellite - Pass Details

Date: 07 December 2022
Orbit: 407 x 442 km, 97.3° (Epoch: 04 February)

Event Time Altitude Azimuth Distance (km) Brightness Sun altitude
Rises 10:53:45 0° 19° (NNE) 2,496 10.3 -24.5°
Reaches altitude 10° 10:55:54 10° 26° (NNE) 1,608 9.4 -24.1°
Maximum altitude 10:59:12 41° 99° (E) 669 7.7 -23.4°
Drops below altitude 10° 11:02:23 10° 171° (S) 1,566 9.4 -22.8°
Sets 11:04:27 0° 178° (S) 2,420 10.3 -22.4°
